Weather in Dosang

Russia / Astrakhan Oblast     46°54′08″N   47°54′52″E
temp.,
°C
wind,
m/s
gust,
m/s
humid.,
%
clouds,
%
prec.,
mm/h
press.,
hPa
HPBL,
m
1 march, mon
mon101:00−2nw227433 0.0 101848
04:00−2nw237655 0.0 102082
07:00−1w259090 0.0 1021320
10:00+1nw577495 0.1 1023882
13:00+3nw466083 0.0 1024962
16:00+3wnw456691 0.0 1024833
19:00+1wnw237591 0.0 102561
22:00−2ne336760 0.0 102665
2 march, tue
tue201:00−2ene11666 0.0 102621
04:00−2nw126528 0.0 102723
07:00−3wnw226822 0.0 102633
10:00+1wsw356114 0.0 1026480
13:00+4wsw685629 0.0 10241079
16:00+4wsw8106448 0.0 10221255
19:00+3sw5106993 0.0 1020665
22:00+3wsw7137196 0.0 1019649
3 march, wed
wed301:00+3sw81573100 0.0 1016611
04:00+3wsw91475100 0.0 1014818
07:00+1wsw81479100 0.0 1012791
10:00+2w101494100 0.3 1011852
13:00+2w91395100 0.4 1011796
16:00+2wnw81195100 1.1 1011618
19:00+1wnw7118793 0.3 1014906
22:00−1wnw5118168 0.4 1017362
4 march, thu
thu401:00−2nw7127463 0.1 1018662
04:00−3wnw6117433 0.1 1020666
07:00−3wnw611730 0.0 1022536
10:000w710610 0.0 1024771
13:00+4w810510 0.0 10241318
16:00+5wsw8104643 0.0 10231529
19:00+3sw5115825 0.0 1022274
22:00+1ssw6135912 0.0 1023297
5 march, fri
fri501:00+1ssw815590 0.0 1022387
04:000ssw714644 0.0 1022389
07:000ssw613745 0.0 1021312
10:00+4sw812633 0.0 1021511
13:00+8sw8104642 0.0 10201035
16:00+9sw894351 0.0 10191154
19:00+6sw46620 0.0 101998
22:00+4ssw59710 0.0 1020198